Home > Weather > Paradise > Past weeks

Flag for Canada Past Weather in Paradise, Newfoundland and Labrador, Canada — Yesterday and Last 2 Weeks

Now
70 °F

Low clouds.


Feels Like: 70 °F
Forecast: 62 / 71 °F
Wind: 21 mph from Southwest

Location: St. John's

Current Time: Jul 24, 2016 at 12:19:10 PM

Latest Report: Jul 24, 2016 at 11:30 AM


Visibility: 15 mi

Pressure: 29.83 "Hg

Humidity: 88%

Dew Point: 66 °F

Location of ParadiseLocation

Past Weather in Paradise — Graph

°F

Paradise Temperature Yesterday

Maximum temperature yesterday: 79 °F (at 2:30 PM)
Minimum temperature yesterday: 63 °F (at 2:30 AM)
Average temperature yesterday: 70 °F

High & Low Weather Summary for the Past Weeks

 TemperatureHumidityPressure
High79 °F (Jul 22, 3:30 PM)100% (Jul 10, 3:30 AM)30.17 "Hg (Jul 10, 3:30 AM)
Low41 °F (Jul 10, 3:30 AM)39% (Jul 17, 10:30 AM)29.42 "Hg (Jul 12, 4:30 AM)
Average59 °F84%29.91 "Hg
* Reported Jul 9 10:30 AM — Jul 24 10:30 AM, Paradise, Weather by CustomWeather, © 2016

Note: Actual official high and low records may vary slightly from our data, if they occured in-between our weather recording intervals... More about our weather records

Advertising

Paradise Weather History for the Previous 24 Hours

Scroll right to see more
 ConditionsComfort  
Time TempWeatherWind HumidityBarometerVisibility
10:30 AM
Sun, Jul 24
72 °FOvercast.17 mph83%29.83 "Hg15 mi
9:30 AM72 °FPartly sunny.18 mph83%29.83 "Hg15 mi
8:30 AM68 °FPartly sunny.16 mph88%29.84 "Hg15 mi
7:30 AM66 °FMostly cloudy.15 mph94%29.84 "Hg15 mi
6:30 AM66 °FMostly cloudy.13 mph94%29.83 "Hg15 mi
5:30 AM66 °FSprinkles. Mostly cloudy.16 mph94%29.84 "Hg15 mi
4:30 AM66 °FMostly cloudy.18 mph94%29.84 "Hg15 mi
3:30 AM66 °FMostly cloudy.13 mph94%29.84 "Hg15 mi
2:30 AM68 °FMostly cloudy.21 mph88%29.83 "Hg15 mi
1:30 AM68 °FLow clouds.16 mph88%29.84 "Hg15 mi
12:30 AM70 °FLow clouds.17 mph88%29.85 "Hg15 mi
11:30 PM
Sat, Jul 23
68 °FPassing clouds.17 mph94%29.86 "Hg15 mi
10:30 PM70 °FOvercast.20 mph88%29.85 "Hg15 mi
9:30 PM68 °FPartly cloudy.18 mph88%29.85 "Hg15 mi
8:30 PM70 °FPartly sunny.21 mph83%29.84 "Hg15 mi
7:30 PM72 °FBroken clouds.25 mph78%29.84 "Hg15 mi
6:30 PM72 °FBroken clouds.22 mph78%29.86 "Hg15 mi
5:30 PM73 °FBroken clouds.28 mph74%29.87 "Hg15 mi
4:30 PM75 °FPartly sunny.24 mph65%29.88 "Hg15 mi
3:30 PM77 °FPartly sunny.23 mph61%29.89 "Hg15 mi
2:30 PM79 °FPartly sunny.24 mph58%29.88 "Hg15 mi
1:30 PM77 °FPartly sunny.26 mph61%29.89 "Hg15 mi
12:30 PM75 °FPartly sunny.23 mph65%29.91 "Hg15 mi
Weather by CustomWeather, © 2016

See weather overviewHow to use our weather pages